Location: Cerezo de Arriba
(41.2389°N, 3.5585°W)
Time: 04:32:42
(UTC+00:00)

Resurs 01 Rocket - Pass Details

Date: 19 May 2025
Orbit: 628 x 637 km, 97.7° (Epoch: 23 June)

Event Time Altitude Azimuth Distance (km) Brightness Sun altitude
Rises 20:46:19 0° 207° (SSW) 2,912 4.9 -12.6°
Reaches altitude 10° 20:49:13 10° 227° (SW) 2,009 4.3 -13.0°
Maximum altitude 20:52:02 17° 268° (W) 1,611 4.3 -13.4°
Drops below altitude 10° 20:54:52 10° 308° (NW) 2,015 5.6 -13.8°
Sets 20:57:48 0° 329° (NNW) 2,927 6.6 -14.2°
